This demonstration page uses our WeatherBlox Daily Observations layout. Learn more.

38.88101, -77.10428

Hourly Observations for August 5, 2017

Temp ( °F °C ) Dew Point ( °F °C ) Humidity (%) Winds ( mph kmh ) Pressure ( in mb ) Visibility ( mi km ) Precip ( " mm )
12:52 am 00:52 Cloudy 79 26.1 73 22.8 82 82 S 13 20 29.85 1011 10 16.0934 0 0
1:52 am 01:52 Cloudy 79 26.1 72 22.2 79 79 SSW 6 9 29.84 1011 10 16.0934 0 0
2:52 am 02:52 Cloudy 79 26.1 72 22.2 79 79 SSW 6 9 29.84 1011 10 16.0934 0 0
3:52 am 03:52 Cloudy 78 25.6 72 22.2 82 82 W 3 6 29.84 1011 10 16.0934 0 0
4:52 am 04:52 Cloudy 77 25 70 21.1 79 79 NNW 12 19 29.86 1011 10 16.0934 0 0
5:52 am 05:52 Cloudy 76 24.4 69 20.6 79 79 NNW 9 15 29.88 1012 10 16.0934 0 0
6:52 am 06:52 Mostly Cloudy 75 23.9 68 20 79 79 NNW 8 13 29.91 1013 10 16.0934 0 0
7:52 am 07:52 Mostly Cloudy 74 23.3 68 20 82 82 NNW 13 20 29.95 1014 10 16.0934 0 0
8:52 am 08:52 Mostly Cloudy 75 23.9 63 17.2 66 66 NNW 18 30 29.97 1015 10 16.0934 0 0
9:52 am 09:52 Partly Cloudy 75 23.9 58 14.4 55 55 NW 17 28 29.99 1016 10 16.0934 0 0
10:52 am 10:52 Partly Cloudy 75 23.9 54 12.2 48 48 NW 22 35 30 1016 10 16.0934 0 0
11:52 am 11:52 Partly Cloudy 76 24.4 54 12.2 47 47 NW 24 39 30.02 1017 10 16.0934 0 0
12:52 pm 12:52 Partly Cloudy 78 25.6 56 13.3 47 47 WNW 18 30 30.01 1016 10 16.0934 0 0
1:52 pm 13:52 Mostly Cloudy 76 24.4 54 12.2 47 47 NW 20 31 29.99 1016 10 16.0934 0 0
2:52 pm 14:52 Partly Cloudy 80 26.7 57 13.9 45 45 NW 8 13 29.98 1015 10 16.0934 0 0
3:52 pm 15:52 Mostly Sunny 81 27.2 56 13.3 42 42 NNW 13 20 29.98 1015 10 16.0934 0 0
4:52 pm 16:52 Mostly Sunny 80 26.7 55 12.8 42 42 NNW 16 26 29.99 1016 10 16.0934 0 0
5:31 pm 17:31 Mostly Cloudy 79 26.1 54 12.2 42 42 NW 15 24 30 1016 10 16.0934 0 0
5:52 pm 17:52 Partly Cloudy 80 26.7 54 12.2 41 41 NW 12 19 30 1016 10 16.0934 0 0
6:52 pm 18:52 Partly Cloudy 78 25.6 54 12.2 43 43 NW 13 20 30.01 1016 10 16.0934 0 0
7:52 pm 19:52 Partly Cloudy 77 25 54 12.2 45 45 NW 12 19 30.03 1017 10 16.0934 0 0
8:52 pm 20:52 Partly Cloudy 75 23.9 53 11.7 46 46 NW 5 7 30.05 1018 10 16.0934 0 0
9:52 pm 21:52 Clear 75 23.9 54 12.2 48 48 W 3 6 30.06 1018 10 16.0934 0 0
10:52 pm 22:52 Clear 73 22.8 55 12.8 53 53 SW 5 7 30.06 1018 10 16.0934 0 0
11:52 pm 23:52 Partly Cloudy 73 22.8 56 13.3 55 55 W 8 13 30.07 1018 10 16.0934 0 0

Powered by AerisWeather